#timestamp,LO_Frequency,Hit,StdDev 
1659279615.7,286046995.5,N
1659279635.6,286046994.0,N
1659279655.4,286046994.2,N
1659279675.3,286046993.4,N
1659279695.1,286046996.0,N
1659279696.0,286046996.0,N
1659279715.8,286046995.5,N
1659279735.7,286046999.6,N
1659279755.5,286046996.2,N
1659279775.3,286046992.0,Y
1659279795.2,286046999.3,P
1659279815.0,286046999.9,N
1659279815.9,286046999.9,N
1659279835.8,286047001.6,N
1659279855.6,286047001.7,N
1659279875.4,286047005.1,N
1659279895.3,286047003.2,N
1659279915.1,286047007.5,N
1659279935.8,286047004.2,N
1659279955.7,286047002.1,N
1659279975.5,286047000.6,N
1659279995.4,286047000.2,N
1659280015.2,286047001.3,N
1659280035.0,286047001.3,N
1659280035.9,286047001.3,N
1659280055.8,286047000.1,N
1659280075.6,286047001.1,N
1659280095.4,286047000.3,N
1659280115.3,286047002.8,N
1659280135.1,286047002.2,N
1659280155.9,286047002.2,N
1659280175.7,286046999.8,N
1659280195.5,286047003.1,N
1659280215.4,286047003.8,N
1659280235.2,286046999.7,N
1659280255.0,286047004.3,N
1659280255.9,286047004.3,N
1659280275.8,286047004.4,N
1659280295.6,286047004.0,N
1659280315.5,286047000.7,N
1659280335.3,286047011.9,Y
1659280355.1,286046999.8,P
1659280375.9,286047000.1,N
1659280395.7,286047000.4,N
1659280415.5,286046999.1,N
1659280435.4,286047000.6,N
1659280455.2,286047001.0,N
1659280475.1,286047001.4,N
1659280476.0,286047001.4,N
1659280495.8,286047000.2,N
1659280515.6,286047000.5,N
1659280535.5,286047000.7,N
1659280555.3,286046999.0,N
1659280575.2,286046997.4,Y
1659280595.9,286046996.4,P
1659280615.7,286046995.2,N
1659280635.6,286046995.9,N
1659280655.4,286046996.0,N
1659280675.2,286046996.2,N
1659280695.1,286046997.3,N
1659280696.0,286046997.3,N
1659280715.8,286046999.3,N
1659280735.7,286047000.3,N
1659280755.5,286046999.1,N
1659280775.3,286046998.7,N
1659280795.2,286046998.7,N
1659280815.0,286046999.1,N
1659280815.9,286046999.1,N
1659280835.7,286046998.6,N
1659280855.6,286046999.3,N
1659280875.4,286046995.9,N
1659280895.3,286046995.2,N
1659280915.1,286046995.5,N
1659280916.0,286046995.5,N
1659280935.8,286046994.9,N
1659280955.7,286046995.1,N
1659280975.5,286046995.7,N
1659280995.3,286046996.0,N
1659281015.2,286046995.4,N
1659281035.0,286046995.0,N
1659281035.9,286046995.0,N
1659281055.8,286046997.7,N
1659281075.6,286046997.9,N
1659281095.4,286046999.3,N
1659281115.3,286046995.2,N
1659281135.1,286046995.2,N
1659281155.8,286046995.5,N
1659281175.7,286046995.1,N
1659281195.5,286047000.9,N
1659281215.4,286047000.2,N
1659281235.2,286047001.9,N
1659281255.0,286047001.8,N
1659281255.9,286047001.8,N
1659281275.8,286047002.2,N
1659281295.6,286047003.3,N
1659281315.5,286047003.1,N
1659281335.3,286047004.7,N
1659281355.1,286047001.5,N
1659281375.9,286047000.7,N
1659281395.7,286047001.1,N
1659281415.6,286047000.1,N
1659281435.4,286046999.0,N
1659281455.2,286046997.7,N
1659281475.1,286046999.2,N
1659281476.0,286046999.2,N
1659281495.8,286046998.2,N
1659281515.6,286046998.1,N
1659281535.5,286046997.8,N
1659281555.3,286046995.0,N
1659281575.2,286046996.1,N
1659281595.9,286046997.9,N
1659281615.7,286046996.6,N
1659281635.6,286046997.7,N
1659281655.4,286046998.7,N
1659281675.2,286046997.4,N
1659281695.1,286046995.1,N
1659281696.0,286046995.1,N
1659281715.8,286046996.0,N
1659281735.7,286046994.0,N
1659281755.5,286046996.0,N
1659281775.3,286046994.3,N
1659281795.2,286046998.0,N
1659281815.9,286046998.0,N
1659281835.7,286046994.9,N
1659281855.6,286046995.5,N
1659281875.4,286046993.4,N
1659281895.3,286046994.4,N
1659281915.1,286046995.7,N
1659281916.0,286046995.7,N
1659281935.8,286046993.3,Y
1659281955.7,286047000.0,P
1659281975.5,286046999.2,N
1659281995.3,286046998.9,N
1659282015.2,286047001.1,N
1659282035.0,286047002.8,N
1659282035.9,286047002.8,N
1659282055.8,286047004.2,N
1659282075.6,286046999.9,N
1659282095.4,286047003.5,N
1659282115.3,286047002.5,N
1659282135.1,286047003.8,N
1659282155.8,286047003.0,N
1659282175.7,286047003.6,N
1659282195.5,286047000.2,N
1659282215.4,286047003.1,N
1659282235.2,286047003.8,N
1659282255.0,286047001.7,N
1659282255.9,286047001.7,N
1659282275.8,286047002.7,N
1659282295.6,286046999.8,N
1659282315.5,286047002.0,N
1659282335.3,286047004.2,N
1659282355.1,286047004.1,N
1659282375.9,286047002.2,N
1659282395.7,286046999.3,N
1659282415.5,286046996.6,N
1659282435.4,286046999.4,N
1659282455.2,286047002.7,N
1659282475.0,286047005.2,N
1659282476.0,286047005.2,N
1659282495.8,286047003.8,N
1659282515.6,286047003.2,N
1659282535.5,286047005.1,N
1659282555.3,286047007.5,Y
1659282575.1,286047003.6,P
1659282595.9,286047004.8,P
1659282615.7,286047005.3,P
1659282635.6,286047005.7,Y
1659282655.4,286046998.7,P
1659282675.2,286046996.5,N
1659282695.1,286047001.1,N
1659282696.0,286047001.1,N
1659282715.8,286046997.2,N
1659282735.7,286046997.7,N
1659282755.5,286046996.3,N
1659282775.3,286046995.6,N
1659282795.2,286046996.2,N
1659282815.9,286046997.7,N
1659282835.7,286046995.6,N
1659282855.6,286046994.7,N
1659282875.4,286046992.5,N
1659282895.3,286046992.9,N
1659282915.1,286046992.8,N
1659282916.0,286046992.8,N
1659282935.8,286046996.4,N
1659282955.7,286046996.0,N
1659282975.5,286046995.8,N
1659282995.3,286046996.1,N
1659283015.2,286046992.1,N
1659283035.0,286046992.2,N
1659283035.9,286046992.2,N
1659283055.8,286046995.4,N
1659283075.6,286046999.4,N
1659283095.4,286046998.4,N
1659283115.3,286046997.3,N
1659283135.1,286046997.4,N
1659283155.9,286046999.2,N
1659283175.7,286046997.4,N
1659283195.5,286046997.8,N
